Back to catalog

OKEAN 3

AliveSciencePO
NORAD 21397·PAYLOAD·🇷🇺 Russia

Launched Jun 4, 1991 from Plesetsk Cosmodrome

Loading…

Next Passes (next 24 hours)

TLE

FreshSource: Space-Track

Epoch: Sep 14, 2026, 11:13 UTC

1 21397U 91039A   26257.46754466  .00002353  00000-0  16058-3 0  9994
2 21397  82.5189 153.7951 0015296  49.2728 310.9825 15.05673586893434

Track OKEAN 3 in real time with AllMySat

Download on the App Store